| time (UTC) | temp C | wind direction | speed KPH | gust KPH | rain 1hr cm | rain 24hr cm | rain mn cm | humidity % | barometer mb |
| 20260510055004 | 13 | 221 | 0.0 | 1.6 | 0.00 | 0.00 | 0.00 | 91 | 986.1 |
| 20260510054504 | 13 | 132 | 0.0 | 1.6 | 0.00 | 0.00 | 0.00 | 91 | 986.0 |
| 20260510054004 | 13 | 122 | 0.0 | 1.6 | 0.00 | 0.00 | 0.00 | 91 | 986.0 |
| 20260510053504 | 13 | 19 | 0.0 | 1.6 | 0.00 | 0.00 | 0.00 | 91 | 986.1 |
| 20260510052504 | 13 | 135 | 0.0 | 1.6 | 0.00 | 0.00 | 0.00 | 90 | 986.1 |
| 20260510052005 | 13 | 128 | 0.0 | 1.6 | 0.00 | 0.00 | 0.00 | 90 | 986.1 |
| 20260510051504 | 13 | 124 | 0.0 | 1.6 | 0.00 | 0.00 | 0.00 | 90 | 986.1 |
| 20260510051004 | 13 | 127 | 0.0 | 1.6 | 0.00 | 0.00 | 0.00 | 90 | 986.2 |
| 20260510050504 | 13 | 140 | 0.0 | 1.6 | 0.00 | 0.00 | 0.00 | 90 | 986.2 |
| 20260510045504 | 13 | 130 | 0.0 | 1.6 | 0.00 | 0.00 | 0.00 | 89 | 986.1 |
| 20260510045005 | 13 | 161 | 0.0 | 1.6 | 0.00 | 0.00 | 0.00 | 89 | 986.1 |
| 20260510044504 | 13 | 149 | 0.0 | 1.6 | 0.00 | 0.00 | 0.00 | 89 | 986.0 |
| 20260510044004 | 13 | 168 | 0.0 | 0.0 | 0.00 | 0.00 | 0.00 | 89 | 986.0 |
| 20260510043504 | 13 | 168 | 0.0 | 0.0 | 0.00 | 0.00 | 0.00 | 89 | 986.0 |
| 20260510042504 | 14 | 303 | 0.0 | 0.0 | 0.00 | 0.00 | 0.00 | 88 | 986.0 |
| 20260510042004 | 14 | 151 | 0.0 | 1.6 | 0.00 | 0.00 | 0.00 | 88 | 986.0 |
| 20260510041505 | 14 | 148 | 0.0 | 1.6 | 0.00 | 0.00 | 0.00 | 88 | 986.0 |
| 20260510041004 | 14 | 207 | 0.0 | 1.6 | 0.00 | 0.00 | 0.00 | 88 | 986.0 |
| 20260510040504 | 14 | 199 | 0.0 | 0.0 | 0.00 | 0.00 | 0.00 | 87 | 986.0 |
| 20260510040004 | 14 | 231 | 0.0 | 1.6 | 0.00 | 0.00 | 0.00 | 87 | 986.0 |
| 20260510035504 | 14 | 245 | 0.0 | 1.6 | 0.00 | 0.00 | 0.00 | 87 | 986.0 |
| 20260510035004 | 14 | 155 | 0.0 | 1.6 | 0.00 | 0.00 | 0.00 | 86 | 986.0 |
| 20260510034503 | 15 | 304 | 0.0 | 1.6 | 0.00 | 0.00 | 0.00 | 86 | 985.9 |
| 20260510034004 | 15 | 272 | 0.0 | 1.6 | 0.00 | 0.00 | 0.00 | 86 | 986.0 |
| 20260510033505 | 15 | 235 | 0.0 | 1.6 | 0.00 | 0.00 | 0.00 | 86 | 986.0 |
| 20260510031505 | 15 | 144 | 0.0 | 3.2 | 0.00 | 0.00 | 0.00 | 85 | 985.9 |
| 20260510030504 | 15 | 220 | 0.0 | 3.2 | 0.00 | 0.00 | 0.00 | 84 | 985.9 |
| 20260510024505 | 15 | 297 | 0.0 | 1.6 | 0.00 | 0.00 | 0.00 | 83 | 985.7 |
| 20260510024004 | 16 | 242 | 0.0 | 1.6 | 0.00 | 0.00 | 0.00 | 83 | 985.6 |
| 20260510023505 | 16 | 165 | 0.0 | 1.6 | 0.00 | 0.00 | 0.00 | 82 | 985.5 |
| 20260510023005 | 16 | 137 | 0.0 | 1.6 | 0.00 | 0.00 | 0.00 | 82 | 985.5 |
| 20260510022505 | 16 | 161 | 0.0 | 0.0 | 0.00 | 0.00 | 0.00 | 82 | 985.4 |
| 20260510022005 | 16 | 7 | 0.0 | 1.6 | 0.00 | 0.00 | 0.00 | 81 | 985.3 |
| 20260510021506 | 16 | 280 | 0.0 | 1.6 | 0.00 | 0.00 | 0.00 | 81 | 985.3 |
| 20260510021006 | 16 | 154 | 0.0 | 0.0 | 0.00 | 0.00 | 0.00 | 81 | 985.2 |
| 20260510020005 | 16 | 228 | 0.0 | 1.6 | 0.00 | 0.00 | 0.00 | 80 | 985.1 |
| 20260510015505 | 17 | 32 | 0.0 | 1.6 | 0.00 | 0.00 | 0.00 | 80 | 985.0 |
| 20260510015004 | 17 | 224 | 0.0 | 1.6 | 0.00 | 0.00 | 0.00 | 80 | 984.9 |
| 20260510013504 | 18 | 122 | 0.0 | 1.6 | 0.00 | 0.00 | 0.00 | 78 | 984.7 |
| 20260510012005 | 18 | 339 | 1.6 | 3.2 | 0.00 | 0.00 | 0.00 | 76 | 984.6 |
| 20260510011005 | 19 | 344 | 1.6 | 4.8 | 0.00 | 0.00 | 0.00 | 76 | 984.4 |
| 20260510010505 | 19 | 319 | 1.6 | 3.2 | 0.00 | 0.00 | 0.00 | 75 | 984.4 |
| 20260510004505 | 21 | 282 | 0.0 | 1.6 | 0.00 | 0.00 | 0.00 | 71 | 984.1 |
| 20260510004005 | 21 | 297 | 0.0 | 1.6 | 0.00 | 0.00 | 0.00 | 69 | 984.0 |
| 20260510003504 | 21 | 299 | 0.0 | 1.6 | 0.00 | 0.00 | 0.00 | 68 | 984.0 |
| 20260510002504 | 22 | 338 | 1.6 | 1.6 | 0.00 | 0.00 | 0.00 | 64 | 984.0 |
| 20260510002004 | 22 | 1 | 0.0 | 1.6 | 0.00 | 0.00 | 0.00 | 64 | 983.9 |
| 20260510001004 | 22 | 326 | 1.6 | 3.2 | 0.00 | 0.00 | 0.00 | 61 | 983.9 |
| 20260510000505 | 22 | 357 | 0.0 | 1.6 | 0.00 | 0.00 | 0.00 | 61 | 984.0 |
| 20260510000005 | 23 | 0 | 1.6 | 1.6 | 0.00 | 0.00 | 0.00 | 59 | 983.9 |
| 20260509235504 | 23 | 2 | 0.0 | 1.6 | 0.00 | 0.00 | 0.00 | 57 | 983.9 |
| 20260509235005 | 23 | 348 | 0.0 | 1.6 | 0.00 | 0.00 | 0.00 | 57 | 984.0 |
| 20260509234505 | 24 | 26 | 1.6 | 1.6 | 0.00 | 0.00 | 0.00 | 57 | 983.9 |
| 20260509234005 | 24 | 26 | 0.0 | 3.2 | 0.00 | 0.00 | 0.00 | 57 | 983.8 |
| 20260509233506 | 24 | 306 | 1.6 | 3.2 | 0.00 | 0.00 | 0.00 | 50 | 983.7 |
| 20260509232004 | 24 | 325 | 1.6 | 3.2 | 0.00 | 0.00 | 0.00 | 49 | 983.7 |
| 20260509231504 | 24 | 293 | 1.6 | 8.0 | 0.00 | 0.00 | 0.00 | 50 | 983.6 |
| 20260509230506 | 25 | 324 | 1.6 | 4.8 | 0.00 | 0.00 | 0.00 | 52 | 983.6 |
| 20260509230005 | 25 | 305 | 1.6 | 3.2 | 0.00 | 0.00 | 0.00 | 48 | 983.5 |
| 20260509225505 | 25 | 261 | 0.0 | 4.8 | 0.00 | 0.00 | 0.00 | 48 | 983.5 |
| 20260509225005 | 25 | 232 | 1.6 | 4.8 | 0.00 | 0.00 | 0.00 | 47 | 983.5 |
| 20260509224505 | 25 | 344 | 1.6 | 4.8 | 0.00 | 0.00 | 0.00 | 49 | 983.5 |
| 20260509224005 | 25 | 341 | 0.0 | 1.6 | 0.00 | 0.00 | 0.00 | 57 | 983.4 |
| 20260509223005 | 25 | 220 | 1.6 | 8.0 | 0.00 | 0.00 | 0.00 | 48 | 983.3 |
| 20260509222505 | 25 | 301 | 1.6 | 9.7 | 0.00 | 0.00 | 0.00 | 49 | 983.2 |
| 20260509221504 | 25 | 344 | 1.6 | 4.8 | 0.00 | 0.00 | 0.00 | 47 | 983.2 |
| 20260509221005 | 25 | 321 | 3.2 | 4.8 | 0.00 | 0.00 | 0.00 | 46 | 983.3 |
| 20260509220504 | 25 | 342 | 1.6 | 4.8 | 0.00 | 0.00 | 0.00 | 47 | 983.3 |
| 20260509220004 | 25 | 288 | 1.6 | 3.2 | 0.00 | 0.00 | 0.00 | 48 | 983.4 |
| 20260509215505 | 25 | 291 | 3.2 | 8.0 | 0.00 | 0.00 | 0.00 | 46 | 983.3 |
| 20260509215005 | 25 | 329 | 3.2 | 8.0 | 0.00 | 0.00 | 0.00 | 49 | 983.3 |
| 20260509214505 | 25 | 28 | 1.6 | 3.2 | 0.00 | 0.00 | 0.00 | 53 | 983.3 |
| 20260509213505 | 25 | 311 | 3.2 | 8.0 | 0.00 | 0.00 | 0.00 | 49 | 983.4 |
| 20260509212505 | 25 | 276 | 1.6 | 4.8 | 0.00 | 0.00 | 0.00 | 51 | 983.3 |
| 20260509212004 | 25 | 172 | 3.2 | 4.8 | 0.00 | 0.00 | 0.00 | 50 | 983.4 |
| 20260509211504 | 24 | 330 | 1.6 | 4.8 | 0.00 | 0.00 | 0.00 | 52 | 983.3 |
| 20260509211005 | 24 | 300 | 1.6 | 8.0 | 0.00 | 0.00 | 0.00 | 57 | 983.3 |
| 20260509210504 | 24 | 258 | 0.0 | 1.6 | 0.00 | 0.00 | 0.00 | 58 | 983.3 |
| 20260509205005 | 25 | 215 | 1.6 | 3.2 | 0.00 | 0.00 | 0.00 | 55 | 983.4 |
| 20260509204505 | 25 | 266 | 1.6 | 4.8 | 0.00 | 0.00 | 0.00 | 55 | 983.4 |
| 20260509203505 | 25 | 220 | 1.6 | 4.8 | 0.00 | 0.00 | 0.00 | 56 | 983.4 |
| 20260509203004 | 25 | 217 | 1.6 | 4.8 | 0.00 | 0.00 | 0.00 | 57 | 983.4 |
| 20260509202505 | 25 | 243 | 3.2 | 4.8 | 0.00 | 0.00 | 0.00 | 56 | 983.4 |
| 20260509202005 | 25 | 243 | 1.6 | 4.8 | 0.00 | 0.00 | 0.00 | 56 | 983.3 |
| 20260509201004 | 25 | 244 | 1.6 | 4.8 | 0.00 | 0.00 | 0.00 | 51 | 983.2 |
| 20260509200505 | 26 | 184 | 4.8 | 11.3 | 0.00 | 0.00 | 0.00 | 51 | 983.4 |
| 20260509200004 | 26 | 289 | 1.6 | 9.7 | 0.00 | 0.00 | 0.00 | 51 | 983.4 |
| 20260509195504 | 26 | 334 | 1.6 | 4.8 | 0.00 | 0.00 | 0.00 | 54 | 983.5 |
| 20260509195004 | 25 | 276 | 1.6 | 4.8 | 0.00 | 0.00 | 0.00 | 54 | 983.6 |
| 20260509194504 | 25 | 187 | 3.2 | 8.0 | 0.00 | 0.00 | 0.00 | 52 | 983.5 |
| 20260509193504 | 25 | 195 | 3.2 | 4.8 | 0.00 | 0.00 | 0.00 | 54 | 983.7 |
| 20260509193004 | 25 | 306 | 3.2 | 4.8 | 0.00 | 0.00 | 0.00 | 54 | 983.7 |
| 20260509192504 | 25 | 242 | 3.2 | 4.8 | 0.00 | 0.00 | 0.00 | 56 | 983.8 |
| 20260509192003 | 24 | 285 | 1.6 | 4.8 | 0.00 | 0.00 | 0.00 | 60 | 983.9 |
| 20260509191504 | 24 | 302 | 3.2 | 8.0 | 0.00 | 0.00 | 0.00 | 60 | 984.0 |
| 20260509191004 | 23 | 276 | 4.8 | 4.8 | 0.00 | 0.00 | 0.00 | 58 | 984.0 |
| 20260509190504 | 23 | 214 | 3.2 | 8.0 | 0.00 | 0.00 | 0.00 | 60 | 984.0 |
| 20260509185504 | 23 | 169 | 1.6 | 4.8 | 0.00 | 0.00 | 0.00 | 63 | 984.1 |
| 20260509185004 | 23 | 290 | 4.8 | 9.7 | 0.00 | 0.00 | 0.00 | 64 | 984.0 |
| 20260509184503 | 23 | 185 | 1.6 | 4.8 | 0.00 | 0.00 | 0.00 | 66 | 984.0 |
| 20260509184003 | 22 | 313 | 1.6 | 4.8 | 0.00 | 0.00 | 0.00 | 67 | 984.0 |
| 20260509183504 | 22 | 193 | 1.6 | 3.2 | 0.00 | 0.00 | 0.00 | 68 | 984.1 |
| 20260509183005 | 22 | 10 | 0.0 | 3.2 | 0.00 | 0.00 | 0.00 | 68 | 984.2 |
| 20260509182504 | 22 | 209 | 1.6 | 4.8 | 0.00 | 0.00 | 0.00 | 67 | 984.2 |
| 20260509181505 | 22 | 332 | 1.6 | 8.0 | 0.00 | 0.00 | 0.00 | 70 | 984.0 |
| 20260509181006 | 22 | 207 | 0.0 | 4.8 | 0.00 | 0.00 | 0.00 | 69 | 984.0 |
| 20260509180505 | 22 | 286 | 3.2 | 8.0 | 0.00 | 0.00 | 0.00 | 68 | 983.9 |
| 20260509180006 | 22 | 232 | 3.2 | 4.8 | 0.00 | 0.00 | 0.00 | 69 | 983.9 |
| 20260509175004 | 22 | 49 | 1.6 | 4.8 | 0.00 | 0.00 | 0.00 | 68 | 984.0 |
| 20260509174504 | 22 | 274 | 1.6 | 4.8 | 0.00 | 0.00 | 0.00 | 67 | 984.0 |
| 20260509173505 | 21 | 206 | 3.2 | 9.7 | 0.00 | 0.00 | 0.00 | 69 | 983.8 |
| 20260509173005 | 21 | 286 | 1.6 | 8.0 | 0.00 | 0.00 | 0.00 | 70 | 983.8 |
| 20260509171505 | 21 | 3 | 1.6 | 4.8 | 0.00 | 0.00 | 0.00 | 72 | 984.1 |
| 20260509171005 | 21 | 226 | 3.2 | 8.0 | 0.00 | 0.00 | 0.00 | 74 | 984.0 |
| 20260509170504 | 21 | 256 | 1.6 | 3.2 | 0.00 | 0.00 | 0.00 | 73 | 984.1 |
| 20260509170004 | 21 | 250 | 1.6 | 4.8 | 0.00 | 0.00 | 0.00 | 74 | 984.2 |
| 20260509165505 | 21 | 318 | 3.2 | 4.8 | 0.00 | 0.00 | 0.00 | 74 | 984.2 |
| 20260509165005 | 20 | 227 | 1.6 | 4.8 | 0.00 | 0.00 | 0.00 | 75 | 984.2 |
| 20260509164505 | 20 | 131 | 3.2 | 4.8 | 0.00 | 0.00 | 0.00 | 76 | 984.2 |
| 20260509164005 | 20 | 172 | 1.6 | 4.8 | 0.00 | 0.00 | 0.00 | 77 | 984.2 |
| 20260509163505 | 20 | 91 | 0.0 | 1.6 | 0.00 | 0.00 | 0.00 | 75 | 984.2 |
| 20260509163005 | 20 | 124 | 1.6 | 3.2 | 0.00 | 0.00 | 0.00 | 75 | 984.2 |
| 20260509162505 | 20 | 287 | 1.6 | 3.2 | 0.00 | 0.00 | 0.00 | 75 | 984.2 |
| 20260509161505 | 20 | 20 | 0.0 | 4.8 | 0.00 | 0.00 | 0.00 | 76 | 984.2 |
| 20260509161005 | 20 | 281 | 1.6 | 3.2 | 0.00 | 0.00 | 0.00 | 76 | 984.2 |
| 20260509160504 | 20 | 175 | 1.6 | 8.0 | 0.00 | 0.00 | 0.00 | 76 | 984.1 |
| 20260509160005 | 20 | 289 | 0.0 | 3.2 | 0.00 | 0.00 | 0.00 | 78 | 984.1 |
| 20260509155506 | 20 | 186 | 1.6 | 3.2 | 0.00 | 0.00 | 0.00 | 78 | 984.1 |
| 20260509154504 | 19 | 327 | 1.6 | 9.7 | 0.00 | 0.00 | 0.00 | 79 | 984.1 |
| 20260509154004 | 18 | 303 | 1.6 | 4.8 | 0.00 | 0.00 | 0.00 | 81 | 984.1 |
| 20260509153505 | 18 | 262 | 1.6 | 3.2 | 0.00 | 0.00 | 0.00 | 81 | 984.2 |
| 20260509153005 | 18 | 310 | 1.6 | 4.8 | 0.00 | 0.00 | 0.00 | 81 | 984.2 |
| 20260509152504 | 18 | 166 | 0.0 | 4.8 | 0.00 | 0.00 | 0.00 | 82 | 984.1 |
| 20260509151505 | 18 | 326 | 1.6 | 4.8 | 0.00 | 0.00 | 0.00 | 83 | 984.0 |
| 20260509151005 | 17 | 20 | 1.6 | 4.8 | 0.00 | 0.00 | 0.00 | 84 | 984.1 |
| 20260509150506 | 17 | 67 | 1.6 | 4.8 | 0.00 | 0.00 | 0.00 | 84 | 984.0 |
| 20260509145505 | 17 | 342 | 3.2 | 4.8 | 0.00 | 0.00 | 0.00 | 84 | 984.0 |
| 20260509145006 | 17 | 274 | 1.6 | 4.8 | 0.00 | 0.00 | 0.00 | 85 | 984.0 |
| 20260509144504 | 17 | 329 | 3.2 | 4.8 | 0.00 | 0.00 | 0.00 | 85 | 984.0 |
| 20260509144005 | 17 | 182 | 1.6 | 8.0 | 0.00 | 0.00 | 0.00 | 86 | 984.0 |
| 20260509143504 | 17 | 78 | 1.6 | 4.8 | 0.00 | 0.00 | 0.00 | 86 | 984.0 |
| 20260509143004 | 16 | 348 | 1.6 | 3.2 | 0.00 | 0.00 | 0.00 | 87 | 983.9 |
| 20260509142504 | 16 | 256 | 3.2 | 4.8 | 0.00 | 0.00 | 0.00 | 87 | 983.8 |
| 20260509142005 | 16 | 258 | 1.6 | 4.8 | 0.00 | 0.00 | 0.00 | 87 | 983.7 |
| 20260509141505 | 16 | 130 | 0.0 | 4.8 | 0.00 | 0.00 | 0.00 | 88 | 983.7 |
| 20260509140505 | 16 | 226 | 3.2 | 4.8 | 0.00 | 0.00 | 0.00 | 88 | 983.8 |
| 20260509140006 | 16 | 290 | 1.6 | 4.8 | 0.00 | 0.00 | 0.00 | 88 | 983.8 |
| 20260509135505 | 16 | 294 | 1.6 | 8.0 | 0.00 | 0.00 | 0.00 | 89 | 983.9 |
| 20260509135005 | 15 | 188 | 0.0 | 3.2 | 0.00 | 0.00 | 0.00 | 89 | 983.9 |
| 20260509134504 | 15 | 211 | 1.6 | 3.2 | 0.00 | 0.00 | 0.00 | 90 | 983.9 |
| 20260509134005 | 15 | 336 | 1.6 | 3.2 | 0.00 | 0.00 | 0.00 | 91 | 983.9 |
| 20260509133505 | 15 | 183 | 1.6 | 3.2 | 0.00 | 0.00 | 0.00 | 91 | 983.9 |
| 20260509132504 | 14 | 136 | 1.6 | 4.8 | 0.00 | 0.00 | 0.00 | 92 | 983.9 |
| 20260509132004 | 14 | 174 | 1.6 | 4.8 | 0.00 | 0.00 | 0.00 | 93 | 983.9 |
| 20260509131505 | 14 | 224 | 1.6 | 4.8 | 0.00 | 0.00 | 0.00 | 93 | 983.9 |
| 20260509131004 | 13 | 187 | 1.6 | 4.8 | 0.00 | 0.00 | 0.00 | 94 | 983.9 |
| 20260509130504 | 13 | 168 | 1.6 | 4.8 | 0.00 | 0.00 | 0.00 | 95 | 984.0 |
| 20260509130005 | 13 | 153 | 1.6 | 4.8 | 0.00 | 0.00 | 0.00 | 96 | 983.9 |
| 20260509125505 | 13 | 170 | 3.2 | 4.8 | 0.00 | 0.00 | 0.00 | 96 | 983.8 |
| 20260509125004 | 12 | 166 | 0.0 | 4.8 | 0.00 | 0.00 | 0.00 | 97 | 983.9 |
| 20260509124504 | 12 | 138 | 1.6 | 3.2 | 0.00 | 0.00 | 0.00 | 97 | 983.9 |
| 20260509124004 | 12 | 221 | 0.0 | 3.2 | 0.00 | 0.00 | 0.00 | 97 | 983.9 |
| 20260509122504 | 11 | 125 | 0.0 | 1.6 | 0.00 | 0.00 | 0.00 | 96 | 983.7 |
| 20260509122005 | 11 | 120 | 0.0 | 1.6 | 0.00 | 0.00 | 0.00 | 96 | 983.6 |
| 20260509121504 | 11 | 89 | 0.0 | 1.6 | 0.00 | 0.00 | 0.00 | 95 | 983.7 |
| 20260509120504 | 11 | 137 | 0.0 | 1.6 | 0.00 | 0.00 | 0.00 | 95 | 983.7 |
| 20260509120005 | 11 | 165 | 0.0 | 1.6 | 0.00 | 0.00 | 0.00 | 95 | 983.7 |
| 20260509115504 | 10 | 103 | 0.0 | 1.6 | 0.00 | 0.00 | 0.00 | 95 | 983.5 |
| 20260509115004 | 10 | 116 | 0.0 | 1.6 | 0.00 | 0.00 | 0.00 | 95 | 983.4 |
| 20260509114004 | 10 | 117 | 0.0 | 1.6 | 0.00 | 0.00 | 0.00 | 95 | 983.3 |
| 20260509113505 | 10 | 138 | 0.0 | 1.6 | 0.00 | 0.00 | 0.00 | 95 | 983.2 |
| 20260509112504 | 10 | 80 | 1.6 | 1.6 | 0.00 | 0.00 | 0.00 | 95 | 983.1 |
| 20260509111504 | 10 | 102 | 0.0 | 1.6 | 0.00 | 0.00 | 0.00 | 95 | 983.2 |
| 20260509111004 | 10 | 121 | 0.0 | 1.6 | 0.00 | 0.00 | 0.00 | 94 | 983.0 |
| 20260509110504 | 10 | 101 | 0.0 | 1.6 | 0.00 | 0.00 | 0.00 | 94 | 982.9 |
| 20260509110004 | 10 | 122 | 0.0 | 1.6 | 0.00 | 0.00 | 0.00 | 94 | 982.8 |
| 20260509104505 | 10 | 55 | 0.0 | 0.0 | 0.00 | 0.00 | 0.00 | 94 | 982.8 |
| 20260509104005 | 10 | 55 | 0.0 | 1.6 | 0.00 | 0.00 | 0.00 | 94 | 982.7 |
| 20260509103503 | 10 | 53 | 0.0 | 1.6 | 0.00 | 0.00 | 0.00 | 94 | 982.8 |
| 20260509103004 | 10 | 92 | 0.0 | 1.6 | 0.00 | 0.00 | 0.00 | 93 | 982.9 |
| 20260509102504 | 11 | 93 | 0.0 | 1.6 | 0.00 | 0.00 | 0.00 | 93 | 982.9 |
| 20260509102004 | 11 | 92 | 0.0 | 0.0 | 0.00 | 0.00 | 0.00 | 93 | 982.9 |
| 20260509101504 | 11 | 87 | 0.0 | 1.6 | 0.00 | 0.00 | 0.00 | 93 | 982.9 |
| 20260509101003 | 11 | 98 | 0.0 | 1.6 | 0.00 | 0.00 | 0.00 | 93 | 983.0 |
| 20260509100504 | 11 | 106 | 0.0 | 1.6 | 0.00 | 0.00 | 0.00 | 93 | 983.1 |
| 20260509100004 | 11 | 100 | 0.0 | 1.6 | 0.00 | 0.00 | 0.00 | 93 | 983.2 |
| 20260509095504 | 11 | 104 | 0.0 | 1.6 | 0.00 | 0.00 | 0.00 | 93 | 983.3 |
| 20260509095004 | 11 | 198 | 0.0 | 1.6 | 0.00 | 0.00 | 0.00 | 93 | 983.4 |
| 20260509094504 | 11 | 143 | 0.0 | 0.0 | 0.00 | 0.00 | 0.00 | 93 | 983.4 |
| 20260509094004 | 11 | 167 | 0.0 | 0.0 | 0.00 | 0.00 | 0.00 | 93 | 983.5 |
| 20260509093504 | 11 | 160 | 0.0 | 0.0 | 0.00 | 0.00 | 0.00 | 93 | 983.6 |
| 20260509092505 | 11 | 82 | 0.0 | 3.2 | 0.00 | 0.00 | 0.00 | 93 | 983.3 |
| 20260509092005 | 11 | 80 | 0.0 | 1.6 | 0.00 | 0.00 | 0.00 | 93 | 983.5 |
| 20260509091504 | 11 | 80 | 0.0 | 0.0 | 0.00 | 0.00 | 0.00 | 92 | 983.4 |
| 20260509091005 | 11 | 80 | 0.0 | 1.6 | 0.00 | 0.00 | 0.00 | 92 | 983.1 |
| 20260509090505 | 11 | 87 | 0.0 | 1.6 | 0.00 | 0.00 | 0.00 | 92 | 983.2 |
| 20260509090005 | 11 | 94 | 0.0 | 1.6 | 0.00 | 0.00 | 0.00 | 92 | 983.4 |
| 20260509085005 | 11 | 72 | 0.0 | 1.6 | 0.00 | 0.00 | 0.00 | 92 | 983.3 |
| 20260509084504 | 11 | 46 | 0.0 | 1.6 | 0.00 | 0.00 | 0.00 | 92 | 983.3 |
| 20260509084006 | 11 | 152 | 0.0 | 1.6 | 0.00 | 0.00 | 0.00 | 92 | 983.3 |
| 20260509083505 | 11 | 111 | 0.0 | 1.6 | 0.00 | 0.00 | 0.00 | 92 | 983.2 |
| 20260509083004 | 11 | 98 | 0.0 | 0.0 | 0.00 | 0.00 | 0.00 | 92 | 983.1 |
| 20260509082504 | 11 | 98 | 0.0 | 1.6 | 0.00 | 0.00 | 0.00 | 92 | 982.9 |
| 20260509082005 | 11 | 84 | 0.0 | 1.6 | 0.00 | 0.00 | 0.00 | 92 | 982.9 |
| 20260509081005 | 11 | 106 | 0.0 | 0.0 | 0.00 | 0.00 | 0.00 | 91 | 982.8 |
| 20260509080505 | 11 | 106 | 0.0 | 1.6 | 0.00 | 0.00 | 0.00 | 91 | 982.9 |
| 20260509080005 | 11 | 73 | 0.0 | 1.6 | 0.00 | 0.00 | 0.00 | 91 | 982.6 |
| 20260509075505 | 11 | 98 | 0.0 | 1.6 | 0.00 | 0.00 | 0.00 | 91 | 982.6 |
| 20260509075005 | 11 | 100 | 0.0 | 1.6 | 0.00 | 0.00 | 0.00 | 91 | 982.8 |
| 20260509074505 | 11 | 78 | 0.0 | 1.6 | 0.00 | 0.00 | 0.00 | 90 | 982.9 |
| 20260509074005 | 11 | 86 | 0.0 | 0.0 | 0.00 | 0.00 | 0.00 | 90 | 982.9 |
| 20260509073505 | 11 | 90 | 0.0 | 1.6 | 0.00 | 0.00 | 0.00 | 90 | 983.0 |
| 20260509073005 | 11 | 113 | 0.0 | 1.6 | 0.00 | 0.00 | 0.00 | 90 | 983.1 |
| 20260509072004 | 11 | 80 | 0.0 | 1.6 | 0.00 | 0.00 | 0.00 | 90 | 983.0 |
| 20260509071505 | 11 | 110 | 0.0 | 1.6 | 0.00 | 0.00 | 0.00 | 90 | 983.2 |
| 20260509071005 | 12 | 147 | 0.0 | 1.6 | 0.00 | 0.00 | 0.00 | 90 | 983.5 |
| 20260509070505 | 12 | 163 | 0.0 | 0.0 | 0.00 | 0.00 | 0.00 | 89 | 983.5 |
| 20260509065505 | 12 | 66 | 0.0 | 0.0 | 0.00 | 0.00 | 0.00 | 89 | 983.4 |
| 20260509065004 | 12 | 61 | 0.0 | 0.0 | 0.00 | 0.00 | 0.00 | 88 | 983.5 |
| 20260509064504 | 12 | 61 | 0.0 | 0.0 | 0.00 | 0.00 | 0.00 | 88 | 983.6 |
| 20260509064005 | 12 | 61 | 0.0 | 1.6 | 0.00 | 0.00 | 0.00 | 88 | 983.5 |
| 20260509063505 | 12 | 236 | 0.0 | 0.0 | 0.00 | 0.00 | 0.00 | 88 | 983.5 |
| 20260509063004 | 12 | 127 | 0.0 | 1.6 | 0.00 | 0.00 | 0.00 | 88 | 983.7 |
| 20260509062505 | 12 | 94 | 0.0 | 1.6 | 0.00 | 0.00 | 0.00 | 87 | 983.7 |
| 20260509062005 | 12 | 54 | 0.0 | 1.6 | 0.00 | 0.00 | 0.00 | 87 | 983.8 |
| 20260509061505 | 12 | 148 | 0.0 | 0.0 | 0.00 | 0.00 | 0.00 | 87 | 983.9 |
| 20260509060505 | 12 | 109 | 0.0 | 1.6 | 0.00 | 0.00 | 0.00 | 87 | 983.7 |
| 20260509060005 | 12 | 122 | 0.0 | 1.6 | 0.00 | 0.00 | 0.00 | 87 | 983.8 |
| 20260509055505 | 12 | 115 | 0.0 | 0.0 | 0.00 | 0.00 | 0.00 | 86 | 983.9 |